User: anonymous   Login
Location: Unspecified
(29.9680°N, 0.0000°E)
Time: 20:56:29
(UTC+00:00)
Language:

Vanguard 2 Rocket - Orbit

View from above orbital plane
View from above orbital plane
View from above satellite
View from above satellite

Ground track
Ground track

The orbit data is extracted from the following two-line orbital elements,

1    12U 59001B   19170.18025725  .00000088  00000-0  40913-4 0  9993
2    12  32.9034 185.4532 1666050 320.8179  28.2626 11.44264632480818
Epoch (UTC): 19 June 2019 04:19:34
Eccentricity: 0.1666050
inclination: 32.9034°
perigee height: 554 km
apogee height: 3326 km
right ascension of ascending node: 185.4532°
argument of perigee: 320.8179°
revolutions per day: 11.44264632
mean anomaly at epoch: 28.2626°
orbit number at epoch: 48081

The dashed part of the orbit path shows where the satellite is in the earth's shadow,  

DLR